Location: Wiler
(46.4041°N, 7.7840°E)
Time: 13:36:49
(UTC+00:00)

FREGAT/IRIS - Pass Details

Date: 09 April 2020
Orbit: 327 x 333 km, 96.9° (Epoch: 25 May)

Event Time Altitude Azimuth Distance (km) Brightness Sun altitude
Exits shadow 19:03:56 - 172° (S) 1,974 5.9 -9.8°
Reaches altitude 10° 19:05:31 10° 174° (S) 1,285 4.9 -10.1°
Maximum altitude 19:08:14 68° 259° (WSW) 373 2.6 -10.5°
Drops below altitude 10° 19:10:59 10° 343° (NNW) 1,304 5.8 -11.0°
Sets 19:12:56 0° 346° (NNW) 2,152 6.9 -11.3°
